Regional Weather Roundup
Issued by NWS

Home | Current Version | Previous Version | Text Only | Print | Product List | Glossary Off
Versions: 1 2 3 4 5 6 7 8 9 10 11 12 13 14 15 16 17 18 19 20 21 22 23 24 25 26 27 28 29 30 31 32 33 34 35 36 37 38 39 40 41 42 43 44 45 46 47 48 49 50

000
ASUS43 KOAX 272310
RWRNE

WEATHER ROUNDUP FOR NEBRASKA
NATIONAL WEATHER SERVICE OMAHA NE
600 PM CDT THU APR 27 2017

NOTES: SATELLITE DATA IS BEING USED TO AUGMENT CLOUD COVER ABOVE
       12000 FEET.
       "FAIR" INDICATES FEW OR NO CLOUDS BELOW 12,000 FEET WITH NO
       SIGNIFICANT WEATHER AND/OR OBSTRUCTIONS TO VISIBILITY.

  * THESE STATIONS DO NOT REPORT WEATHER SUCH AS RAIN...SNOW OR FOG.

NEZ001>004-019>022-054>056-280000-
NEBRASKA PANHANDLE

CITY           SKY/WX    TMP DP  RH WIND       PRES   REMARKS
SCOTTSBLUFF    LGT RAIN  44  40  85 N8        29.55F FOG
ALLIANCE       LGT RAIN  44  40  85 S17       29.57R
CHADRON        LGT RAIN  46  39  76 SE12      29.59R
KIMBALL        LGT RAIN  40  38  93 NW7       29.58S
SIDNEY         LGT RAIN  47  41  80 N8        29.55R
$$

NEZ057>060-069>072-079>082-280000-
SOUTHWEST NEBRASKA

CITY           SKY/WX    TMP DP  RH WIND       PRES   REMARKS
NORTH PLATTE   CLOUDY    51  38  60 E17       29.60R
IMPERIAL       LGT RAIN  47  40  76 E17G25    29.53S
LEXINGTON      LGT RAIN  53  37  54 E13G22    29.61S
MCCOOK         LGT RAIN  51  43  74 SE14      29.56S
OGALLALA       CLOUDY    54  36  50 E18       29.56R
$$

NEZ005>010-023>029-035>040-094-280000-
NORTH CENTRAL NEBRASKA

CITY           SKY/WX    TMP DP  RH WIND       PRES   REMARKS
VALENTINE      PTSUNNY   54  29  38 E8        29.63R
AINSWORTH      MOSUNNY   54  35  49 E9G17     29.64R
BROKEN BOW     CLOUDY    51  35  54 SE14G23   29.63R
O`NEILL        SUNNY     53  30  41 CALM      29.67S
ORD            CLOUDY    52  34  50 E8        29.64S
THEDFORD       LGT RAIN  51  37  58 E14       29.62R
$$

NEZ041-046>049-061>064-073>077-083>087-280000-
SOUTH CENTRAL NEBRASKA

CITY           SKY/WX    TMP DP  RH WIND       PRES   REMARKS
GRAND ISLAND   CLOUDY    51  42  71 E6        29.67R
AURORA         CLOUDY    55  34  45 SE7       29.67S
HASTINGS       CLOUDY    56  34  43 SE15G21   29.66S
HEBRON         RAIN      53  41  64 S17       29.69R
HOLDREGE       CLOUDY    51  37  59 SE22      29.62S
KEARNEY *      PTSUNNY   55  36  47 SE20G25   29.64F
YORK           LGT RAIN  54  36  50 S7        29.69R
$$

NEZ011>018-030>034-042>045-280000-
NORTHEAST NEBRASKA

CITY           SKY/WX    TMP DP  RH WIND       PRES   REMARKS
NORFOLK        SUNNY     52  33  48 S3        29.67S
ALBION         PTSUNNY   55  36  47 SE5       29.67S
BLAIR          MOSUNNY   56  34  44 W5        29.69S
FREMONT        SUNNY     58  33  38 CALM      29.70R
TEKAMAH        MOSUNNY   57  33  40 W9        29.69R
WAYNE          SUNNY     54  37  52 CALM      29.69S
$$

NEZ050>053-065>068-078-088>093-280000-
SOUTHEAST NEBRASKA

CITY           SKY/WX    TMP DP  RH WIND       PRES   REMARKS
LINCOLN        CLOUDY    57  33  40 S8        29.71R
OMAHA EPPLEY   PTSUNNY   58  32  37 W6        29.70R
BEATRICE       CLOUDY    58  35  42 S3        29.70S
FALLS CITY     MOSUNNY   59  39  47 W5        29.70S
NEBRASKA CITY  CLOUDY    56  28  33 NW3       29.71R
PLATTSMOUTH    CLOUDY    56  26  31 CALM      29.71R
$$

NEZ044-045-051>053-067-280000-
OMAHA AREA

CITY           SKY/WX    TMP DP  RH WIND       PRES   REMARKS
OMAHA EPPLEY   PTSUNNY   58  32  37 W6        29.70R
BLAIR          MOSUNNY   56  34  44 W5        29.69S
FREMONT        SUNNY     58  33  38 CALM      29.70R
MILLARD        MOSUNNY   58  35  40 CALM      29.70R
OFFUTT AFB     MOSUNNY   58  33  39 NW3       29.70R
PLATTSMOUTH    CLOUDY    56  26  31 CALM      29.71R
WAHOO          MOCLDY    58  29  33 CALM      29.69R
$$




USA.gov is the U.S. government's official web portal to all federal, state and local government web resources and services.